Showing default

FLOCK 4BE 9, 60514

Orbit data source: Space-Track

FLOCK 4BE 9, 60514 is a payload satellite owned by Planet (US) in SSO that was launched on Fri, 16 Aug 2024 UTC via an FALCON 9 launch vehicle from the Air Force Western Test Range (AFWTR). Payload-class satellites include a variety of spacecraft equipped with specific instruments for various scientific and technological missions. These include communications satellites like Starlink; space stations such as the ISS; scientific satellites like the Hubble; Earth observation satellites from companies like Planet Labs, Umbra, and HawkEye 360; GPS; miniature CubeSats for education and research; and military/defense satellites.

Loading next visibility...
Identifier
60514, 2024-149AY
Orbit
SSO
Country
Flag of USUS
Related business
Manufacturer
Planet
Mission
Operational Commercial Imaging
Bus & Motor
CUBESAT 3U, Unknown motor
Mass
5.7 kg wet, 5.7 kg dry
Launch date (UTC)
2024-08-16 (1 year ago)
Launch vehicle
FALCON 9
Launch site
Air Force Western Test Range (AFWTR)
Object type
Payload
Rocket body
Debris
Shape & HBR
Box + 2 Pan, 1.0 m
Radar Cross Section
0.072 m², Medium (>0.1 m² and < 1m²)

Expand to show TLE details & history
Last TLE update: 7 hours ago

TLE from 7 hours ago
0 FLOCK 4BE 9
1 60514U 24149AY  25300.44887252  .00016866  00000-0  54298-3 0  9994
2 60514  97.4003  18.6157 0004307  68.9498 291.2204 15.32277037 66578
Epoch: 2025-10-27T10:46Z
TLE epoch observation values (Epoch: 2025-10-27T10:46:22.585Z)
Latitude
-0.00005°
Longitude
-179.02896°
Altitude
471.061 km
Speed
7.631 km/s
True Right ascension
01h 14m 27s
True Declination
0° 00' 00"
Sunlit
Object was in full shadow at epoch
Visualization orbit readout
Latitude
Unknown
Longitude
Unknown
Altitude
Unknown
Speed
Unknown
Apparent Right ascension
Unknown
Apparent Declination
Unknown
Sunlit
N/A
Visualization observer readout
Local Sidereal Time
13:18:07
Azimuth
Unknown
Elevation
Unknown
Doppler factor
Unknown
Orbital elements
Apogee altitude
468.917 km
Perigee altitude
463.022 km
Semi-major axis
6,844.107 km
Eccentricity
0.00043
Inclination
97.4003°
RAAN
18.6157°
Arg. of periapsis
68.9498°
True anomaly
291.17438°
Mean anomaly
291.2204°
Eccentric anomaly
291.19739°
Mean motion
3.83326 °/min
Orbital period
93.91 mins
BSTAR
0.00054298
Loading maneuver chart data...
Computing Atmospheric mass density...
Loading historical data...
Loading historical data...
Loading historical data...
Loading historical data...
Loading historical data...
Loading historical data...
Loading historical data...

Documentation

Showing up to 5 results
|